Year,Month,Day,Hour,Minute,Value (Times are PST for temperature in C)
2015,06,01,00,00,15.00
2015,06,01,00,01,15.00
2015,06,01,00,02,15.00
2015,06,01,00,03,14.90
2015,06,01,00,04,14.90
2015,06,01,00,05,14.90
2015,06,01,00,06,14.90
2015,06,01,00,07,14.80
2015,06,01,00,08,14.80
2015,06,01,00,09,14.80
2015,06,01,00,10,14.80
2015,06,01,00,11,14.80
2015,06,01,00,12,14.80
2015,06,01,00,13,14.80
2015,06,01,00,14,14.80
2015,06,01,00,15,14.70
2015,06,01,00,16,14.70
2015,06,01,00,17,14.70
2015,06,01,00,18,14.70
2015,06,01,00,19,14.80
2015,06,01,00,20,14.80
2015,06,01,00,21,14.80
2015,06,01,00,22,14.70
2015,06,01,00,23,14.70
2015,06,01,00,24,14.70
2015,06,01,00,25,14.70
2015,06,01,00,26,14.70
2015,06,01,00,27,14.70
2015,06,01,00,28,14.70
2015,06,01,00,29,14.70
2015,06,01,00,30,14.70
2015,06,01,00,31,14.70
2015,06,01,00,32,14.80
2015,06,01,00,33,14.80
2015,06,01,00,34,14.80
2015,06,01,00,35,14.80
2015,06,01,00,36,14.80
2015,06,01,00,37,14.90
2015,06,01,00,38,14.90
2015,06,01,00,39,14.90
2015,06,01,00,40,14.90
2015,06,01,00,41,14.90
2015,06,01,00,42,14.90
2015,06,01,00,43,15.00
2015,06,01,00,44,15.00
2015,06,01,00,45,15.00
2015,06,01,00,46,15.10
2015,06,01,00,47,15.10
2015,06,01,00,48,15.10
2015,06,01,00,49,15.10
2015,06,01,00,50,15.00
2015,06,01,00,51,15.00
2015,06,01,00,52,15.00
2015,06,01,00,53,15.00
2015,06,01,00,54,15.00
2015,06,01,00,55,15.00
2015,06,01,00,56,15.10
2015,06,01,00,57,15.10
2015,06,01,00,58,15.10
2015,06,01,00,59,15.10
2015,06,01,01,00,15.10
2015,06,01,01,01,15.10
2015,06,01,01,02,15.10
2015,06,01,01,03,15.10
2015,06,01,01,04,15.20
2015,06,01,01,05,15.20
2015,06,01,01,06,15.30
2015,06,01,01,07,15.30
2015,06,01,01,08,15.30
2015,06,01,01,09,15.30
2015,06,01,01,10,15.20
2015,06,01,01,11,15.20
2015,06,01,01,12,15.20
2015,06,01,01,13,15.20
2015,06,01,01,14,15.20
2015,06,01,01,15,15.20
2015,06,01,01,16,15.20
2015,06,01,01,17,15.20
2015,06,01,01,18,15.20
2015,06,01,01,19,15.20
2015,06,01,01,20,15.20
2015,06,01,01,21,15.20
2015,06,01,01,22,15.20
2015,06,01,01,23,15.20
2015,06,01,01,24,15.10
2015,06,01,01,25,15.10
2015,06,01,01,26,15.10
2015,06,01,01,27,15.10
2015,06,01,01,28,15.10
2015,06,01,01,29,15.10
2015,06,01,01,30,15.10
2015,06,01,01,31,15.10
2015,06,01,01,32,15.10
2015,06,01,01,33,15.10
2015,06,01,01,34,15.10
2015,06,01,01,35,15.10
2015,06,01,01,36,15.10
2015,06,01,01,37,15.10
2015,06,01,01,38,15.10
2015,06,01,01,39,15.10
2015,06,01,01,40,15.10
2015,06,01,01,41,15.10
2015,06,01,01,42,15.10
2015,06,01,01,43,15.10
2015,06,01,01,44,15.10
2015,06,01,01,45,15.10
2015,06,01,01,46,15.10
2015,06,01,01,47,15.10
2015,06,01,01,48,15.10
2015,06,01,01,49,15.10
2015,06,01,01,50,15.10
2015,06,01,01,51,15.10
2015,06,01,01,52,15.10
2015,06,01,01,53,15.20
2015,06,01,01,54,15.20
2015,06,01,01,55,15.20
2015,06,01,01,56,15.20
2015,06,01,01,57,15.30
2015,06,01,01,58,15.30
2015,06,01,01,59,15.30
2015,06,01,02,00,15.30
2015,06,01,02,01,15.40
2015,06,01,02,02,15.40
2015,06,01,02,03,15.40
2015,06,01,02,04,15.40
2015,06,01,02,05,15.40
2015,06,01,02,06,15.40
2015,06,01,02,07,15.40
2015,06,01,02,08,15.40
2015,06,01,02,09,15.50
2015,06,01,02,10,15.50
2015,06,01,02,11,15.50
2015,06,01,02,12,15.60
2015,06,01,02,13,15.50
2015,06,01,02,14,15.50
2015,06,01,02,15,15.50
2015,06,01,02,16,15.50
2015,06,01,02,17,15.50
2015,06,01,02,18,15.40
2015,06,01,02,19,15.40
2015,06,01,02,20,15.40
2015,06,01,02,21,15.40
2015,06,01,02,22,15.40
2015,06,01,02,23,15.40
2015,06,01,02,24,15.40
2015,06,01,02,25,15.50
2015,06,01,02,26,15.50
2015,06,01,02,27,15.60
2015,06,01,02,28,15.60
2015,06,01,02,29,15.60
2015,06,01,02,30,15.70
2015,06,01,02,31,15.70
2015,06,01,02,32,15.70
2015,06,01,02,33,15.70
2015,06,01,02,34,15.70
2015,06,01,02,35,15.80
2015,06,01,02,36,15.80
2015,06,01,02,37,15.80
2015,06,01,02,38,15.90
2015,06,01,02,39,16.00
2015,06,01,02,40,16.10
2015,06,01,02,41,16.10
2015,06,01,02,42,16.20
2015,06,01,02,43,16.20
2015,06,01,02,44,16.30
2015,06,01,02,45,16.30
2015,06,01,02,46,16.30
2015,06,01,02,47,16.30
2015,06,01,02,48,16.30
2015,06,01,02,49,16.40
2015,06,01,02,50,16.40
2015,06,01,02,51,16.40
2015,06,01,02,52,16.40
2015,06,01,02,53,16.40
2015,06,01,02,54,16.40
2015,06,01,02,55,16.40
2015,06,01,02,56,16.40
2015,06,01,02,57,16.40
2015,06,01,02,58,16.40
2015,06,01,02,59,16.40
2015,06,01,03,00,16.40
2015,06,01,03,01,16.40
2015,06,01,03,02,16.40
2015,06,01,03,03,16.50
2015,06,01,03,04,16.50
2015,06,01,03,05,16.50
2015,06,01,03,06,16.50
2015,06,01,03,07,16.50
2015,06,01,03,08,16.60
2015,06,01,03,09,16.60
2015,06,01,03,10,16.60
2015,06,01,03,11,16.50
2015,06,01,03,12,16.50
2015,06,01,03,13,16.40
2015,06,01,03,14,16.40
2015,06,01,03,15,16.30
2015,06,01,03,16,16.30
2015,06,01,03,17,16.20
2015,06,01,03,18,16.20
2015,06,01,03,19,16.20
2015,06,01,03,20,16.20
2015,06,01,03,21,16.20
2015,06,01,03,22,16.20
2015,06,01,03,23,16.20
2015,06,01,03,24,16.20
2015,06,01,03,25,16.20
2015,06,01,03,26,16.30
2015,06,01,03,27,16.30
2015,06,01,03,28,16.30
2015,06,01,03,29,16.30
2015,06,01,03,30,16.30
2015,06,01,03,31,16.30
2015,06,01,03,32,16.30
2015,06,01,03,33,16.30
2015,06,01,03,34,16.30
2015,06,01,03,35,16.30
2015,06,01,03,36,16.30
2015,06,01,03,37,16.30
2015,06,01,03,38,16.30
2015,06,01,03,39,16.30
2015,06,01,03,40,16.40
2015,06,01,03,41,16.40
2015,06,01,03,42,16.40
2015,06,01,03,43,16.40
2015,06,01,03,44,16.40
2015,06,01,03,45,16.40
2015,06,01,03,46,16.40
2015,06,01,03,47,16.40
2015,06,01,03,48,16.40
2015,06,01,03,49,16.40
2015,06,01,03,50,16.40
2015,06,01,03,51,16.40
2015,06,01,03,52,16.30
2015,06,01,03,53,16.30
2015,06,01,03,54,16.30
2015,06,01,03,55,16.20
2015,06,01,03,56,16.20
2015,06,01,03,57,16.10
2015,06,01,03,58,16.10
2015,06,01,03,59,16.00
2015,06,01,04,00,16.00
2015,06,01,04,01,15.90
2015,06,01,04,02,15.90
2015,06,01,04,03,15.80
2015,06,01,04,04,15.80
2015,06,01,04,05,15.80
2015,06,01,04,06,15.70
2015,06,01,04,07,15.70
2015,06,01,04,08,15.60
2015,06,01,04,09,15.60
2015,06,01,04,10,15.60
2015,06,01,04,11,15.50
2015,06,01,04,12,15.50
2015,06,01,04,13,15.40
2015,06,01,04,14,15.40
2015,06,01,04,15,15.40
2015,06,01,04,16,15.40
2015,06,01,04,17,15.40
2015,06,01,04,18,15.30
2015,06,01,04,19,15.30
2015,06,01,04,20,15.30
2015,06,01,04,21,15.30
2015,06,01,04,22,15.20
2015,06,01,04,23,15.20
2015,06,01,04,24,15.20
2015,06,01,04,25,15.20
2015,06,01,04,26,15.20
2015,06,01,04,27,15.20
2015,06,01,04,28,15.10
2015,06,01,04,29,15.10
2015,06,01,04,30,15.10
2015,06,01,04,31,15.10
2015,06,01,04,32,15.00
2015,06,01,04,33,15.00
2015,06,01,04,34,14.90
2015,06,01,04,35,14.90
2015,06,01,04,36,14.90
2015,06,01,04,37,14.80
2015,06,01,04,38,14.80
2015,06,01,04,39,14.80
2015,06,01,04,40,14.80
2015,06,01,04,41,14.80
2015,06,01,04,42,14.70
2015,06,01,04,43,14.70
2015,06,01,04,44,14.70
2015,06,01,04,45,14.70
2015,06,01,04,46,14.70
2015,06,01,04,47,14.70
2015,06,01,04,48,14.60
2015,06,01,04,49,14.60
2015,06,01,04,50,14.60
2015,06,01,04,51,14.60
2015,06,01,04,52,14.60
2015,06,01,04,53,14.60
2015,06,01,04,54,14.60
2015,06,01,04,55,14.60
2015,06,01,04,56,14.60
2015,06,01,04,57,14.60
2015,06,01,04,58,14.60
2015,06,01,04,59,14.70
2015,06,01,05,00,14.70
2015,06,01,05,01,14.60
2015,06,01,05,02,14.60
2015,06,01,05,03,14.60
2015,06,01,05,04,14.60
2015,06,01,05,05,14.60
2015,06,01,05,06,14.60
2015,06,01,05,07,14.60
2015,06,01,05,08,14.60
2015,06,01,05,09,14.60
2015,06,01,05,10,14.60
2015,06,01,05,11,14.60
2015,06,01,05,12,14.60
2015,06,01,05,13,14.60
2015,06,01,05,14,14.60
2015,06,01,05,15,14.60
2015,06,01,05,16,14.60
2015,06,01,05,17,14.50
2015,06,01,05,18,14.50
2015,06,01,05,19,14.50
2015,06,01,05,20,14.50
2015,06,01,05,21,14.50
2015,06,01,05,22,14.40
2015,06,01,05,23,14.40
2015,06,01,05,24,14.50
2015,06,01,05,25,14.50
2015,06,01,05,26,14.50
2015,06,01,05,27,14.50
2015,06,01,05,28,14.50
2015,06,01,05,29,14.50
2015,06,01,05,30,14.50
2015,06,01,05,31,14.50
2015,06,01,05,32,14.60
2015,06,01,05,33,14.60
2015,06,01,05,34,14.60
2015,06,01,05,35,14.60
2015,06,01,05,36,14.60
2015,06,01,05,37,14.60
2015,06,01,05,38,14.50
2015,06,01,05,39,14.60
2015,06,01,05,40,14.60
2015,06,01,05,41,14.60
2015,06,01,05,42,14.60
2015,06,01,05,43,14.60
2015,06,01,05,44,14.60
2015,06,01,05,45,14.60
2015,06,01,05,46,14.60
2015,06,01,05,47,14.60
2015,06,01,05,48,14.60
2015,06,01,05,49,14.60
2015,06,01,05,50,14.70
2015,06,01,05,51,14.60
2015,06,01,05,52,14.70
2015,06,01,05,53,14.70
2015,06,01,05,54,14.70
2015,06,01,05,55,14.70
2015,06,01,05,56,14.70
2015,06,01,05,57,14.70
2015,06,01,05,58,14.70
2015,06,01,05,59,14.70
2015,06,01,06,00,14.70
2015,06,01,06,01,14.70
2015,06,01,06,02,14.70
2015,06,01,06,03,14.70
2015,06,01,06,04,14.70
2015,06,01,06,05,14.70
2015,06,01,06,06,14.70
2015,06,01,06,07,14.80
2015,06,01,06,08,14.80
2015,06,01,06,09,14.80
2015,06,01,06,10,14.80
2015,06,01,06,11,14.80
2015,06,01,06,12,14.80
2015,06,01,06,13,14.80
2015,06,01,06,14,14.80
2015,06,01,06,15,14.90
2015,06,01,06,16,14.90
2015,06,01,06,17,15.00
2015,06,01,06,18,15.00
2015,06,01,06,19,15.10
2015,06,01,06,20,15.10
2015,06,01,06,21,15.10
2015,06,01,06,22,15.10
2015,06,01,06,23,15.10
2015,06,01,06,24,15.10
2015,06,01,06,25,15.10
2015,06,01,06,26,15.10
2015,06,01,06,27,15.10
2015,06,01,06,28,15.10
2015,06,01,06,29,15.20
2015,06,01,06,30,15.20
2015,06,01,06,31,15.20
2015,06,01,06,32,15.20
2015,06,01,06,33,15.30
2015,06,01,06,34,15.30
2015,06,01,06,35,15.30
2015,06,01,06,36,15.30
2015,06,01,06,37,15.30
2015,06,01,06,38,15.30
2015,06,01,06,39,15.30
2015,06,01,06,40,15.30
2015,06,01,06,41,15.40
2015,06,01,06,42,15.40
2015,06,01,06,43,15.40
2015,06,01,06,44,15.40
2015,06,01,06,45,15.40
2015,06,01,06,46,15.40
2015,06,01,06,47,15.40
2015,06,01,06,48,15.40
2015,06,01,06,49,15.40
2015,06,01,06,50,15.40
2015,06,01,06,51,15.40
2015,06,01,06,52,15.50
2015,06,01,06,53,15.50
2015,06,01,06,54,15.50
2015,06,01,06,55,15.50
2015,06,01,06,56,15.60
2015,06,01,06,57,15.50
2015,06,01,06,58,15.60
2015,06,01,06,59,15.60
2015,06,01,07,00,15.60
2015,06,01,07,01,15.60
2015,06,01,07,02,15.60
2015,06,01,07,03,15.60
2015,06,01,07,04,15.60
2015,06,01,07,05,15.70
2015,06,01,07,06,15.70
2015,06,01,07,07,15.70
2015,06,01,07,08,15.80
2015,06,01,07,09,15.80
2015,06,01,07,10,15.90
2015,06,01,07,11,15.90
2015,06,01,07,12,16.00
2015,06,01,07,13,16.10
2015,06,01,07,14,16.10
2015,06,01,07,15,16.20
2015,06,01,07,16,16.30
2015,06,01,07,17,16.40
2015,06,01,07,18,16.50
2015,06,01,07,19,16.60
2015,06,01,07,20,16.70
2015,06,01,07,21,16.80
2015,06,01,07,22,16.90
2015,06,01,07,23,17.00
2015,06,01,07,24,17.10
2015,06,01,07,25,17.20
2015,06,01,07,26,17.30
2015,06,01,07,27,17.40
2015,06,01,07,28,17.50
2015,06,01,07,29,17.50
2015,06,01,07,30,17.60
2015,06,01,07,31,17.70
2015,06,01,07,32,17.70
2015,06,01,07,33,17.80
2015,06,01,07,34,17.80
2015,06,01,07,35,17.80
2015,06,01,07,36,17.80
2015,06,01,07,37,17.80
2015,06,01,07,38,17.80
2015,06,01,07,39,17.80
2015,06,01,07,40,17.80
2015,06,01,07,41,17.80
2015,06,01,07,42,17.80
2015,06,01,07,43,17.80
2015,06,01,07,44,17.80
2015,06,01,07,45,17.90
2015,06,01,07,46,18.00
2015,06,01,07,47,18.00
2015,06,01,07,48,18.10
2015,06,01,07,49,18.10
2015,06,01,07,50,18.10
2015,06,01,07,51,18.20
2015,06,01,07,52,18.20
2015,06,01,07,53,18.30
2015,06,01,07,54,18.30
2015,06,01,07,55,18.40
2015,06,01,07,56,18.50
2015,06,01,07,57,18.50
2015,06,01,07,58,18.60
2015,06,01,07,59,18.70
2015,06,01,08,00,18.70
2015,06,01,08,01,18.80
2015,06,01,08,02,18.80
2015,06,01,08,03,18.90
2015,06,01,08,04,18.90
2015,06,01,08,05,19.00
2015,06,01,08,06,19.00
2015,06,01,08,07,19.10
2015,06,01,08,08,19.10
2015,06,01,08,09,19.10
2015,06,01,08,10,19.20
2015,06,01,08,11,19.20
2015,06,01,08,12,19.30
2015,06,01,08,13,19.40
2015,06,01,08,14,19.40
2015,06,01,08,15,19.50
2015,06,01,08,16,19.50
2015,06,01,08,17,19.60
2015,06,01,08,18,19.60
2015,06,01,08,19,19.60
2015,06,01,08,20,19.60
2015,06,01,08,21,19.60
2015,06,01,08,22,19.60
2015,06,01,08,23,19.60
2015,06,01,08,24,19.60
2015,06,01,08,25,19.60
2015,06,01,08,26,19.60
2015,06,01,08,27,19.60
2015,06,01,08,28,19.60
2015,06,01,08,29,19.60
2015,06,01,08,30,19.50
2015,06,01,08,31,19.50
2015,06,01,08,32,19.50
2015,06,01,08,33,19.40
2015,06,01,08,34,19.40
2015,06,01,08,35,19.40
2015,06,01,08,36,19.40
2015,06,01,08,37,19.40
2015,06,01,08,38,19.40
2015,06,01,08,39,19.40
2015,06,01,08,40,19.40
2015,06,01,08,41,19.40
2015,06,01,08,42,19.50
2015,06,01,08,43,19.60
2015,06,01,08,44,19.60
2015,06,01,08,45,19.70
2015,06,01,08,46,19.70
2015,06,01,08,47,19.80
2015,06,01,08,48,19.90
2015,06,01,08,49,20.00
2015,06,01,08,50,20.00
2015,06,01,08,51,20.00
2015,06,01,08,52,20.10
2015,06,01,08,53,20.10
2015,06,01,08,54,20.10
2015,06,01,08,55,20.20
2015,06,01,08,56,20.20
2015,06,01,08,57,20.30
2015,06,01,08,58,20.40
2015,06,01,08,59,20.40
2015,06,01,09,00,20.50
2015,06,01,09,01,20.50
2015,06,01,09,02,20.50
2015,06,01,09,03,20.50
2015,06,01,09,04,20.60
2015,06,01,09,05,20.60
2015,06,01,09,06,20.70
2015,06,01,09,07,20.70
2015,06,01,09,08,20.80
2015,06,01,09,09,20.90
2015,06,01,09,10,21.00
2015,06,01,09,11,21.10
2015,06,01,09,12,21.30
2015,06,01,09,13,21.40
2015,06,01,09,14,21.50
2015,06,01,09,15,21.60
2015,06,01,09,16,21.70
2015,06,01,09,17,21.80
2015,06,01,09,18,21.80
2015,06,01,09,19,21.80
2015,06,01,09,20,21.80
2015,06,01,09,21,21.80
2015,06,01,09,22,21.80
2015,06,01,09,23,21.80
2015,06,01,09,24,21.80
2015,06,01,09,25,21.80
2015,06,01,09,26,21.80
2015,06,01,09,27,21.90
2015,06,01,09,28,22.00
2015,06,01,09,29,22.10
2015,06,01,09,30,22.10
2015,06,01,09,31,22.10
2015,06,01,09,32,22.10
2015,06,01,09,33,22.20
2015,06,01,09,34,22.20
2015,06,01,09,35,22.30
2015,06,01,09,36,22.30
2015,06,01,09,37,22.30
2015,06,01,09,38,22.40
2015,06,01,09,39,22.50
2015,06,01,09,40,22.50
2015,06,01,09,41,22.60
2015,06,01,09,42,22.60
2015,06,01,09,43,22.60
2015,06,01,09,44,22.60
2015,06,01,09,45,22.50
2015,06,01,09,46,22.40
2015,06,01,09,47,22.40
2015,06,01,09,48,22.30
2015,06,01,09,49,22.30
2015,06,01,09,50,22.20
2015,06,01,09,51,22.20
2015,06,01,09,52,22.10
2015,06,01,09,53,22.10
2015,06,01,09,54,22.00
2015,06,01,09,55,21.90
2015,06,01,09,56,21.90
2015,06,01,09,57,21.80
2015,06,01,09,58,21.80
2015,06,01,09,59,21.80
2015,06,01,10,00,21.70
2015,06,01,10,01,21.70
2015,06,01,10,02,21.70
2015,06,01,10,03,21.80
2015,06,01,10,04,21.80
2015,06,01,10,05,21.80
2015,06,01,10,06,21.80
2015,06,01,10,07,21.80
2015,06,01,10,08,21.80
2015,06,01,10,09,21.80
2015,06,01,10,10,21.80
2015,06,01,10,11,21.80
2015,06,01,10,12,21.80
2015,06,01,10,13,21.80
2015,06,01,10,14,21.80
2015,06,01,10,15,21.80
2015,06,01,10,16,21.80
2015,06,01,10,17,21.80
2015,06,01,10,18,21.80
2015,06,01,10,19,21.80
2015,06,01,10,20,21.80
2015,06,01,10,21,21.70
2015,06,01,10,22,21.60
2015,06,01,10,23,21.50
2015,06,01,10,24,21.50
2015,06,01,10,25,21.40
2015,06,01,10,26,21.30
2015,06,01,10,27,21.30
2015,06,01,10,28,21.30
2015,06,01,10,29,21.20
2015,06,01,10,30,21.20
2015,06,01,10,31,21.20
2015,06,01,10,32,21.10
2015,06,01,10,33,21.10
2015,06,01,10,34,21.10
2015,06,01,10,35,21.10
2015,06,01,10,36,21.10
2015,06,01,10,37,21.10
2015,06,01,10,38,21.10
2015,06,01,10,39,21.10
2015,06,01,10,40,21.10
2015,06,01,10,41,21.00
2015,06,01,10,42,21.00
2015,06,01,10,43,21.00
2015,06,01,10,44,21.00
2015,06,01,10,45,21.00
2015,06,01,10,46,21.00
2015,06,01,10,47,21.00
2015,06,01,10,48,21.00
2015,06,01,10,49,21.00
2015,06,01,10,50,20.90
2015,06,01,10,51,20.90
2015,06,01,10,52,20.90
2015,06,01,10,53,20.90
2015,06,01,10,54,21.00
2015,06,01,10,55,21.00
2015,06,01,10,56,21.00
2015,06,01,10,57,21.00
2015,06,01,10,58,21.00
2015,06,01,10,59,20.90
2015,06,01,11,00,20.90
2015,06,01,11,01,20.80
2015,06,01,11,02,20.80
2015,06,01,11,03,20.80
2015,06,01,11,04,20.80
2015,06,01,11,05,20.70
2015,06,01,11,06,20.60
2015,06,01,11,07,20.50
2015,06,01,11,08,20.50
2015,06,01,11,09,20.40
2015,06,01,11,10,20.40
2015,06,01,11,11,20.40
2015,06,01,11,12,20.40
2015,06,01,11,13,20.30
2015,06,01,11,14,20.30
2015,06,01,11,15,20.30
2015,06,01,11,16,20.30
2015,06,01,11,17,20.30
2015,06,01,11,18,20.30
2015,06,01,11,19,20.30
2015,06,01,11,20,20.30
2015,06,01,11,21,20.30
2015,06,01,11,22,20.30
2015,06,01,11,23,20.30
2015,06,01,11,24,20.30
2015,06,01,11,25,20.40
2015,06,01,11,26,20.40
2015,06,01,11,27,20.40
2015,06,01,11,28,20.40
2015,06,01,11,29,20.40
2015,06,01,11,30,20.40
2015,06,01,11,31,20.40
2015,06,01,11,32,20.40
2015,06,01,11,33,20.40
2015,06,01,11,34,20.30
2015,06,01,11,35,20.30
2015,06,01,11,36,20.30
2015,06,01,11,37,20.30
2015,06,01,11,38,20.30
2015,06,01,11,39,20.30
2015,06,01,11,40,20.40
2015,06,01,11,41,20.40
2015,06,01,11,42,20.50
2015,06,01,11,43,20.50
2015,06,01,11,44,20.60
2015,06,01,11,45,20.70
2015,06,01,11,46,20.80
2015,06,01,11,47,20.90
2015,06,01,11,48,20.90
2015,06,01,11,49,20.90
2015,06,01,11,50,20.90
2015,06,01,11,51,20.90
2015,06,01,11,52,20.80
2015,06,01,11,53,20.80
2015,06,01,11,54,20.70
2015,06,01,11,55,20.60
2015,06,01,11,56,20.60
2015,06,01,11,57,20.50
2015,06,01,11,58,20.50
2015,06,01,11,59,20.40
2015,06,01,12,00,20.40
2015,06,01,12,01,20.40
2015,06,01,12,02,20.40
2015,06,01,12,03,20.40
2015,06,01,12,04,20.50
2015,06,01,12,05,20.50
2015,06,01,12,06,20.50
2015,06,01,12,07,20.50
2015,06,01,12,08,20.60
2015,06,01,12,09,20.60
2015,06,01,12,10,20.70
2015,06,01,12,11,20.80
2015,06,01,12,12,20.80
2015,06,01,12,13,20.80
2015,06,01,12,14,20.70
2015,06,01,12,15,20.70
2015,06,01,12,16,20.60
2015,06,01,12,17,20.60
2015,06,01,12,18,20.50
2015,06,01,12,19,20.50
2015,06,01,12,20,20.50
2015,06,01,12,21,20.40
2015,06,01,12,22,20.40
2015,06,01,12,23,20.40
2015,06,01,12,24,20.50
2015,06,01,12,25,20.50
2015,06,01,12,26,20.60
2015,06,01,12,27,20.60
2015,06,01,12,28,20.60
2015,06,01,12,29,20.70
2015,06,01,12,30,20.70
2015,06,01,12,31,20.80
2015,06,01,12,32,21.00
2015,06,01,12,33,21.10
2015,06,01,12,34,21.20
2015,06,01,12,35,21.30
2015,06,01,12,36,21.50
2015,06,01,12,37,21.70
2015,06,01,12,38,21.80
2015,06,01,12,39,21.90
2015,06,01,12,40,21.90
2015,06,01,12,41,21.90
2015,06,01,12,42,21.90
2015,06,01,12,43,22.00
2015,06,01,12,44,22.00
2015,06,01,12,45,22.10
2015,06,01,12,46,22.10
2015,06,01,12,47,22.10
2015,06,01,12,48,22.10
2015,06,01,12,49,22.10
2015,06,01,12,50,22.10
2015,06,01,12,51,22.10
2015,06,01,12,52,22.10
2015,06,01,12,53,21.90
2015,06,01,12,54,21.80
2015,06,01,12,55,21.60
2015,06,01,12,56,21.50
2015,06,01,12,57,21.50
2015,06,01,12,58,21.40
2015,06,01,12,59,21.40
2015,06,01,13,00,21.30
2015,06,01,13,01,21.20
2015,06,01,13,02,21.10
2015,06,01,13,03,21.00
2015,06,01,13,04,21.00
2015,06,01,13,05,20.90
2015,06,01,13,06,20.90
2015,06,01,13,07,20.80
2015,06,01,13,08,20.80
2015,06,01,13,09,20.70
2015,06,01,13,10,20.70
2015,06,01,13,11,20.70
2015,06,01,13,12,20.70
2015,06,01,13,13,20.70
2015,06,01,13,14,20.70
2015,06,01,13,15,20.70
2015,06,01,13,16,20.70
2015,06,01,13,17,20.80
2015,06,01,13,18,20.90
2015,06,01,13,19,20.90
2015,06,01,13,20,21.00
2015,06,01,13,21,21.00
2015,06,01,13,22,21.10
2015,06,01,13,23,21.10
2015,06,01,13,24,21.10
2015,06,01,13,25,21.10
2015,06,01,13,26,21.10
2015,06,01,13,27,21.00
2015,06,01,13,28,21.10
2015,06,01,13,29,21.00
2015,06,01,13,30,21.00
2015,06,01,13,31,20.90
2015,06,01,13,32,20.90
2015,06,01,13,33,20.90
2015,06,01,13,34,20.90
2015,06,01,13,35,20.90
2015,06,01,13,36,21.00
2015,06,01,13,37,21.00
2015,06,01,13,38,21.00
2015,06,01,13,39,21.10
2015,06,01,13,40,21.10
2015,06,01,13,41,21.00
2015,06,01,13,42,20.90
2015,06,01,13,43,20.80
2015,06,01,13,44,20.70
2015,06,01,13,45,20.60
2015,06,01,13,46,20.60
2015,06,01,13,47,20.60
2015,06,01,13,48,20.60
2015,06,01,13,49,20.60
2015,06,01,13,50,20.50
2015,06,01,13,51,20.40
2015,06,01,13,52,20.30
2015,06,01,13,53,20.30
2015,06,01,13,54,20.30
2015,06,01,13,55,20.30
2015,06,01,13,56,20.20
2015,06,01,13,57,20.20
2015,06,01,13,58,20.20
2015,06,01,13,59,20.20
2015,06,01,14,00,20.20
2015,06,01,14,01,20.30
2015,06,01,14,02,20.40
2015,06,01,14,03,20.40
2015,06,01,14,04,20.50
2015,06,01,14,05,20.50
2015,06,01,14,06,20.60
2015,06,01,14,07,20.60
2015,06,01,14,08,20.70
2015,06,01,14,09,20.90
2015,06,01,14,10,21.00
2015,06,01,14,11,21.10
2015,06,01,14,12,21.10
2015,06,01,14,13,21.20
2015,06,01,14,14,21.30
2015,06,01,14,15,21.30
2015,06,01,14,16,21.20
2015,06,01,14,17,21.20
2015,06,01,14,18,21.20
2015,06,01,14,19,21.10
2015,06,01,14,20,21.10
2015,06,01,14,21,21.10
2015,06,01,14,22,21.10
2015,06,01,14,23,21.20
2015,06,01,14,24,21.20
2015,06,01,14,25,21.20
2015,06,01,14,26,21.20
2015,06,01,14,27,21.20
2015,06,01,14,28,21.20
2015,06,01,14,29,21.20
2015,06,01,14,30,21.30
2015,06,01,14,31,21.20
2015,06,01,14,32,21.20
2015,06,01,14,33,21.20
2015,06,01,14,34,21.30
2015,06,01,14,35,21.30
2015,06,01,14,36,21.30
2015,06,01,14,37,21.30
2015,06,01,14,38,21.20
2015,06,01,14,39,21.20
2015,06,01,14,40,21.20
2015,06,01,14,41,21.20
2015,06,01,14,42,21.20
2015,06,01,14,43,21.20
2015,06,01,14,44,21.20
2015,06,01,14,45,21.20
2015,06,01,14,46,21.20
2015,06,01,14,47,21.20
2015,06,01,14,48,21.30
2015,06,01,14,49,21.30
2015,06,01,14,50,21.40
2015,06,01,14,51,21.40
2015,06,01,14,52,21.40
2015,06,01,14,53,21.50
2015,06,01,14,54,21.60
2015,06,01,14,55,21.70
2015,06,01,14,56,21.60
2015,06,01,14,57,21.50
2015,06,01,14,58,21.40
2015,06,01,14,59,21.40
2015,06,01,15,00,21.40
2015,06,01,15,01,21.30
2015,06,01,15,02,21.30
2015,06,01,15,03,21.30
2015,06,01,15,04,21.30
2015,06,01,15,05,21.20
2015,06,01,15,06,21.20
2015,06,01,15,07,21.10
2015,06,01,15,08,21.00
2015,06,01,15,09,20.90
2015,06,01,15,10,20.90
2015,06,01,15,11,20.80
2015,06,01,15,12,20.80
2015,06,01,15,13,20.80
2015,06,01,15,14,20.80
2015,06,01,15,15,20.70
2015,06,01,15,16,20.70
2015,06,01,15,17,20.70
2015,06,01,15,18,20.70
2015,06,01,15,19,20.70
2015,06,01,15,20,20.60
2015,06,01,15,21,20.60
2015,06,01,15,22,20.60
2015,06,01,15,23,20.50
2015,06,01,15,24,20.50
2015,06,01,15,25,20.40
2015,06,01,15,26,20.30
2015,06,01,15,27,20.20
2015,06,01,15,28,20.20
2015,06,01,15,29,20.10
2015,06,01,15,30,20.10
2015,06,01,15,31,20.00
2015,06,01,15,32,20.00
2015,06,01,15,33,19.90
2015,06,01,15,34,19.90
2015,06,01,15,35,19.90
2015,06,01,15,36,19.90
2015,06,01,15,37,19.90
2015,06,01,15,38,19.80
2015,06,01,15,39,19.70
2015,06,01,15,40,19.60
2015,06,01,15,41,19.60
2015,06,01,15,42,19.60
2015,06,01,15,43,19.50
2015,06,01,15,44,19.50
2015,06,01,15,45,19.50
2015,06,01,15,46,19.50
2015,06,01,15,47,19.50
2015,06,01,15,48,19.50
2015,06,01,15,49,19.50
2015,06,01,15,50,19.50
2015,06,01,15,51,19.50
2015,06,01,15,52,19.40
2015,06,01,15,53,19.40
2015,06,01,15,54,19.40
2015,06,01,15,55,19.40
2015,06,01,15,56,19.40
2015,06,01,15,57,19.40
2015,06,01,15,58,19.40
2015,06,01,15,59,19.40
2015,06,01,16,00,19.40
2015,06,01,16,01,19.40
2015,06,01,16,02,19.40
2015,06,01,16,03,19.40
2015,06,01,16,04,19.40
2015,06,01,16,05,19.40
2015,06,01,16,06,19.40
2015,06,01,16,07,19.50
2015,06,01,16,08,19.60
2015,06,01,16,09,19.70
2015,06,01,16,10,19.80
2015,06,01,16,11,19.90
2015,06,01,16,12,20.10
2015,06,01,16,13,20.10
2015,06,01,16,14,20.20
2015,06,01,16,15,20.30
2015,06,01,16,16,20.40
2015,06,01,16,17,20.50
2015,06,01,16,18,20.50
2015,06,01,16,19,20.50
2015,06,01,16,20,20.50
2015,06,01,16,21,20.40
2015,06,01,16,22,20.40
2015,06,01,16,23,20.50
2015,06,01,16,24,20.50
2015,06,01,16,25,20.50
2015,06,01,16,26,20.50
2015,06,01,16,27,20.40
2015,06,01,16,28,20.40
2015,06,01,16,29,20.30
2015,06,01,16,30,20.20
2015,06,01,16,31,20.10
2015,06,01,16,32,19.90
2015,06,01,16,33,19.80
2015,06,01,16,34,19.70
2015,06,01,16,35,19.60
2015,06,01,16,36,19.50
2015,06,01,16,37,19.40
2015,06,01,16,38,19.30
2015,06,01,16,39,19.20
2015,06,01,16,40,19.20
2015,06,01,16,41,19.20
2015,06,01,16,42,19.10
2015,06,01,16,43,19.10
2015,06,01,16,44,19.00
2015,06,01,16,45,19.00
2015,06,01,16,46,18.90
2015,06,01,16,47,18.80
2015,06,01,16,48,18.70
2015,06,01,16,49,18.60
2015,06,01,16,50,18.60
2015,06,01,16,51,18.50
2015,06,01,16,52,18.40
2015,06,01,16,53,18.40
2015,06,01,16,54,18.30
2015,06,01,16,55,18.30
2015,06,01,16,56,18.30
2015,06,01,16,57,18.30
2015,06,01,16,58,18.30
2015,06,01,16,59,18.20
2015,06,01,17,00,18.20
2015,06,01,17,01,18.10
2015,06,01,17,02,18.10
2015,06,01,17,03,18.10
2015,06,01,17,04,18.00
2015,06,01,17,05,18.00
2015,06,01,17,06,17.90
2015,06,01,17,07,17.90
2015,06,01,17,08,17.80
2015,06,01,17,09,17.80
2015,06,01,17,10,17.80
2015,06,01,17,11,17.70
2015,06,01,17,12,17.70
2015,06,01,17,13,17.70
2015,06,01,17,14,17.70
2015,06,01,17,15,17.70
2015,06,01,17,16,17.70
2015,06,01,17,17,17.70
2015,06,01,17,18,17.60
2015,06,01,17,19,17.60